Rome, NY

12:33 PM EST on November 21, 2017 (GMT -0500)
Griffiss

Weather History for KRME - February, 2014

Change the Weather History Date:

Friday, February 14, 2014

  Actual Average Record
Temperature  
Mean Temperature 24 °F -  
Max Temperature 28 °F 32 °F 48 °F (1984)
Min Temperature 19 °F 15 °F -27 °F (2016)
Degree Days  
Heating Degree Days 42    
Moisture  
Dew Point 20 °F    
Average Humidity 81    
Maximum Humidity 89    
Minimum Humidity 69    
Precipitation  
Precipitation 0.04 in - - ()
Sea Level Pressure  
Sea Level Pressure 29.42 in    
Wind  
Wind Speed 12 mph (WNW)    
Max Wind Speed 20 mph    
Max Gust Speed 28 mph    
Visibility 4 miles    
Events Snow    
Averages and records for this station are not official NWS values.
T = Trace of Precipitation, MM = Missing Value Source: NWS Daily Summary

Daily Weather History Graph

Daily Weather History Graph

Search for Another Location

Airport or City:

Trip Planner

Search our weather history database for the weather conditions in past years. The results will help you decide how hot, cold, wet, or windy it might be!

Date:

Astronomy

Feb. 14, 2014 Rise Set
Actual Time 7:00 AM EST 5:31 PM EST
Civil Twilight 6:31 AM EST 6:00 PM EST
Nautical Twilight 5:58 AM EST 6:34 PM EST
Astronomical Twilight 5:25 AM EST 7:07 PM EST
Moon 5:34 PM EST (2/14) 6:25 AM EST (2/14)
Length of Visible Light 11h 28m
Length of Day
10h 30m
Full, 100% of the Moon is Illuminated
Feb 14
Full
Feb 14
Full
Feb 22
Last Quarter
Mar 1
New
Mar 8
First Quarter

Hourly Weather History & Observations

Time (EST) Temp. Windchill Dew Point Humidity Pressure Visibility Wind Dir Wind Speed Gust Speed Precip Events Conditions
12:11 AM 25.0 °F 14.8 °F 19.0 °F 78% 29.31 in 2.5 mi North 10.4 mph - 0.00 in Snow Light Snow
12:22 AM 25.0 °F 15.5 °F 19.0 °F 78% 29.30 in 3.0 mi NNW 9.2 mph - 0.00 in Snow Light Snow
12:53 AM 23.0 °F 12.4 °F 18.0 °F 81% 29.30 in 2.5 mi NNW 10.4 mph - 0.00 in Snow Light Snow
1:02 AM 23.0 °F 14.7 °F 18.0 °F 81% 29.28 in 3.0 mi NNW 6.9 mph - 0.00 in Snow Light Snow
1:41 AM 23.0 °F 13.9 °F 17.1 °F 78% 29.28 in 2.0 mi North 8.1 mph - 0.00 in Snow Light Snow
1:53 AM 21.9 °F 11.0 °F 17.1 °F 82% 29.29 in 1.2 mi North 10.4 mph - 0.00 in Snow Light Snow
2:15 AM 21.0 °F 9.3 °F 16.0 °F 81% 29.27 in 1.0 mi North 11.5 mph 19.6 mph 0.01 in Snow Light Snow
2:53 AM 21.0 °F 9.3 °F 16.0 °F 81% 29.27 in 1.0 mi NW 11.5 mph - 0.02 in Snow Light Snow
3:13 AM 21.0 °F 12.4 °F 17.1 °F 85% 29.25 in 1.2 mi WNW 6.9 mph - 0.00 in Snow Light Snow
3:28 AM 21.0 °F 9.3 °F 16.0 °F 81% 29.25 in 2.5 mi NW 11.5 mph - 0.00 in Snow Light Snow
3:32 AM 21.0 °F 9.9 °F 16.0 °F 81% 29.25 in 3.0 mi NW 10.4 mph - 0.00 in Snow Light Snow
3:53 AM 21.9 °F 11.7 °F 17.1 °F 82% 29.27 in 4.0 mi NW 9.2 mph - 0.00 in Snow Light Snow
4:16 AM 21.9 °F 11.7 °F 17.1 °F 82% 29.26 in 7.0 mi West 9.2 mph - 0.00 in Snow Light Snow
4:53 AM 21.0 °F 9.9 °F 18.0 °F 88% 29.28 in 8.0 mi West 10.4 mph - 0.00 in Snow Light Snow
5:35 AM 21.0 °F 8.6 °F 18.0 °F 88% 29.28 in 2.0 mi West 12.7 mph - 0.00 in Snow Light Snow
5:53 AM 21.0 °F 8.1 °F 18.0 °F 88% 29.30 in 2.5 mi West 13.8 mph - 0.00 in Snow Light Snow
6:01 AM 21.0 °F 8.6 °F 17.1 °F 85% 29.29 in 2.5 mi West 12.7 mph - 0.00 in Snow Light Snow
6:06 AM 19.9 °F 6.7 °F 17.1 °F 89% 29.29 in 1.8 mi West 13.8 mph - 0.00 in Snow Light Snow
6:17 AM 19.9 °F 6.7 °F 17.1 °F 89% 29.30 in 2.0 mi West 13.8 mph - 0.00 in Snow Light Snow
6:53 AM 19.9 °F 7.3 °F 16.0 °F 85% 29.33 in 2.0 mi West 12.7 mph - 0.00 in Snow Light Snow
7:22 AM 19.9 °F 6.2 °F 17.1 °F 89% 29.32 in 1.5 mi West 15.0 mph - 0.01 in Snow Light Snow
7:53 AM 21.0 °F 7.1 °F 17.1 °F 85% 29.35 in 1.0 mi West 16.1 mph - 0.01 in Snow Light Snow
8:53 AM 21.9 °F 8.7 °F 19.0 °F 89% 29.37 in 1.0 mi WNW 15.0 mph - 0.00 in Snow Light Snow
9:36 AM 24.1 °F 13.1 °F 19.9 °F 84% 29.36 in 1.0 mi West 11.5 mph - 0.00 in Snow Light Snow
9:53 AM 24.1 °F 13.7 °F 21.0 °F 88% 29.39 in 1.0 mi West 10.4 mph - 0.00 in Snow Light Snow
10:22 AM 25.0 °F 12.6 °F 19.9 °F 81% 29.38 in 3.0 mi WNW 15.0 mph - 0.01 in Snow Light Snow
10:39 AM 26.1 °F 15.6 °F 21.0 °F 81% 29.39 in 1.8 mi West 11.5 mph - 0.01 in Snow Light Snow
10:49 AM 26.6 °F 14.3 °F 21.2 °F 80% 29.39 in 3.0 mi West 16.1 mph 21.9 mph 0.01 in Snow Light Snow
10:53 AM 26.1 °F 13.1 °F 21.0 °F 81% 29.41 in 4.0 mi West 17.3 mph - 0.01 in Snow Light Snow
10:56 AM 26.1 °F 14.0 °F 21.0 °F 81% 29.39 in 2.5 mi West 15.0 mph - 0.00 in Snow Light Snow
11:04 AM 26.1 °F 14.0 °F 21.9 °F 84% 29.40 in 1.0 mi West 15.0 mph - 0.00 in Snow Light Snow
11:43 AM 27.0 °F 13.5 °F 21.9 °F 81% 29.41 in 1.5 mi WNW 19.6 mph - 0.00 in Snow Light Snow
11:53 AM 27.0 °F 14.7 °F 21.9 °F 81% 29.43 in 1.5 mi West 16.1 mph 27.6 mph 0.00 in Snow Light Snow
12:05 PM 27.0 °F 15.2 °F 23.0 °F 85% 29.42 in 2.0 mi WNW 15.0 mph - 0.00 in Snow Light Snow
12:26 PM 28.0 °F 16.1 °F 23.0 °F 81% 29.42 in 1.5 mi WNW 16.1 mph - 0.00 in Snow Light Snow
12:45 PM 28.0 °F 15.7 °F 21.9 °F 78% 29.42 in 3.0 mi WNW 17.3 mph 24.2 mph 0.00 in Snow Light Snow
12:53 PM 28.0 °F 17.5 °F 23.0 °F 81% 29.44 in 4.0 mi West 12.7 mph 26.5 mph 0.00 in Snow Light Snow
1:10 PM 28.0 °F 17.0 °F 23.0 °F 81% 29.44 in 1.8 mi West 13.8 mph - 0.00 in Snow Light Snow
1:25 PM 28.0 °F 17.5 °F 24.1 °F 85% 29.45 in 1.0 mi West 12.7 mph - 0.00 in Snow Light Snow
1:41 PM 28.0 °F 20.0 °F 25.0 °F 88% 29.46 in 2.5 mi West 8.1 mph - 0.00 in Snow Light Snow
1:49 PM 28.4 °F 17.5 °F 24.8 °F 86% 29.46 in 1.0 mi West 13.8 mph 20.7 mph 0.00 in Snow Light Snow
1:51 PM 28.4 °F 17.5 °F 24.8 °F 86% 29.46 in 0.8 mi West 13.8 mph 20.7 mph 0.00 in Snow Light Snow
1:53 PM 28.0 °F 17.0 °F 25.0 °F 88% 29.48 in 0.8 mi West 13.8 mph 20.7 mph 0.00 in Snow Light Snow
2:04 PM 28.9 °F 16.5 °F 24.1 °F 82% 29.47 in 1.8 mi West 18.4 mph 24.2 mph 0.00 in Snow Light Snow
2:08 PM 28.9 °F 16.1 °F 23.0 °F 78% 29.47 in 3.0 mi West 19.6 mph 24.2 mph 0.00 in Snow Light Snow
2:27 PM 28.9 °F 16.1 °F 23.0 °F 78% 29.49 in 5.0 mi West 19.6 mph 26.5 mph 0.00 in   Overcast
2:53 PM 28.9 °F 17.3 °F 21.9 °F 75% 29.52 in 6.0 mi West 16.1 mph 26.5 mph 0.00 in   Overcast
3:18 PM 28.9 °F 17.7 °F 21.9 °F 75% 29.52 in 10.0 mi West 15.0 mph 24.2 mph 0.00 in   Overcast
3:53 PM 28.9 °F 19.2 °F 23.0 °F 78% 29.57 in 8.0 mi West 11.5 mph - 0.00 in   Overcast
4:07 PM 28.9 °F 18.6 °F 21.9 °F 75% 29.55 in 10.0 mi West 12.7 mph - N/A   Overcast
4:53 PM 28.9 °F 20.4 °F 21.0 °F 72% 29.58 in 10.0 mi West 9.2 mph - N/A   Mostly Cloudy
5:53 PM 28.9 °F 21.9 °F 21.0 °F 72% 29.62 in 10.0 mi West 6.9 mph - N/A   Overcast
6:53 PM 28.9 °F 21.1 °F 21.9 °F 75% 29.66 in 10.0 mi WNW 8.1 mph - N/A   Overcast
7:53 PM 28.0 °F 17.0 °F 19.0 °F 69% 29.71 in 10.0 mi West 13.8 mph - N/A   Overcast
8:53 PM 27.0 °F 16.7 °F 18.0 °F 69% 29.73 in 10.0 mi West 11.5 mph 21.9 mph N/A   Overcast
9:53 PM 27.0 °F 17.3 °F 19.0 °F 72% 29.73 in 9.0 mi West 10.4 mph - N/A   Overcast
10:53 PM 27.0 °F 18.7 °F 18.0 °F 69% 29.75 in 9.0 mi West 8.1 mph - N/A   Overcast
11:53 PM 26.1 °F 20.5 °F 18.0 °F 71% 29.77 in 8.0 mi West 4.6 mph - N/A   Overcast